This demonstration page uses our WeatherBlox Daily Observations layout. Learn more.

Left ArrowRight Arrow

39.92423, -83.80882

Hourly Observations for August 15, 2021

Temp ( °F °C ) Dew Point ( °F °C ) Humidity (%) Winds ( mph kmh ) Pressure ( in mb ) Visibility ( mi km ) Precip ( " mm )
12:56 am 00:56 Clear 63 17.2 63 17.2 100 100 ENE 8 13 30.24 1024 10 16 0.00 0.00
1:56 am 01:56 Mostly Cloudy 64 17.8 62 16.7 93 93 ENE 10 17 30.22 1024 10 16 0.00 0.00
2:56 am 02:56 Mostly Clear 62 16.7 62 16.7 100 100 ENE 8 13 30.21 1023 10 16 0.00 0.00
3:56 am 03:56 Cloudy 62 16.7 62 16.7 100 100 ENE 8 13 30.20 1023 10 16 0.00 0.00
4:56 am 04:56 Cloudy 62 16.7 60 15.6 93 93 ENE 8 13 30.19 1022 10 16 0.00 0.00
5:56 am 05:56 Cloudy 62 16.7 58 14.4 86 86 ENE 8 13 30.20 1023 10 16 0.00 0.00
6:56 am 06:56 Cloudy 62 16.7 57 13.9 84 84 ENE 10 17 30.20 1023 10 16 0.00 0.00
7:56 am 07:56 Partly Cloudy 62 16.7 58 14.4 86 86 ENE 9 15 30.21 1023 10 16 0.00 0.00
8:56 am 08:56 Cloudy 64 17.8 58 14.4 81 81 ENE 12 19 30.22 1023 10 16 0.00 0.00
9:56 am 09:56 Cloudy 66 18.9 59 15 78 78 E 9 15 30.23 1024 10 16 0.00 0.00
10:56 am 10:56 Cloudy 67 19.4 59 15 76 76 E 9 15 30.23 1024 10 16 0.00 0.00
11:56 am 11:56 Cloudy 70 21.1 60 15.6 71 71 ENE 8 13 30.23 1024 10 16 0.00 0.00
12:56 pm 12:56 Cloudy 69 20.6 61 16.1 76 76 E 10 17 30.22 1023 10 16 0.00 0.00
1:56 pm 13:56 Cloudy 72 22.2 62 16.7 71 71 NE 10 17 30.19 1023 10 16 0.00 0.00
2:56 pm 14:56 Cloudy 75 23.9 64 17.8 69 69 NE 14 22 30.17 1022 10 16 0.00 0.00
3:56 pm 15:56 Mostly Cloudy 76 24.4 63 17.2 64 64 NE 14 22 30.16 1021 10 16 0.00 0.00
4:56 pm 16:56 Cloudy 73 22.8 62 16.7 69 69 NE 12 19 30.14 1021 10 16 0.00 0.00
5:56 pm 17:56 Cloudy 72 22.2 61 16.1 68 68 ENE 8 13 30.13 1020 10 16 0.00 0.00
6:56 pm 18:56 Cloudy 72 22.2 61 16.1 68 68 NE 9 15 30.11 1020 10 16 0.00 0.00
7:56 pm 19:56 Cloudy 70 21.1 63 17.2 79 79 ESE 3 6 30.13 1020 10 16 0.00 0.00
8:56 pm 20:56 Mostly Cloudy 67 19.4 64 17.8 91 91 ENE 5 7 30.11 1020 10 16 0.00 0.00
9:56 pm 21:56 Cloudy 67 19.4 65 18.3 93 93 E 5 7 30.13 1020 10 16 0.00 0.00
10:56 pm 22:56 Cloudy 67 19.4 65 18.3 93 93 NE 3 6 30.13 1020 10 16 0.00 0.00
11:22 pm 23:22 Cloudy 68 20 64 18 88 88 NE 6 9 30.11 1020 10 16 0.00 0.00
11:36 pm 23:36 Cloudy 70 21 63 17 78 78 NE 6 9 30.10 1019 10 16 0.00 0.00
11:56 pm 23:56 Cloudy 68 20 62 16.7 81 81 NE 9 15 30.12 1020 10 16 0.00 0.00

Powered by AerisWeather